This demonstration page uses our WeatherBlox Daily Observations layout. Learn more.

Left ArrowRight Arrow

40.92501, -98.34201

Hourly Observations for July 16, 2021

Temp ( °F °C ) Dew Point ( °F °C ) Humidity (%) Winds ( mph kmh ) Pressure ( in mb ) Visibility ( mi km ) Precip ( " mm )
12:53 am 00:53 Mostly Clear with Mist and Fog 69 20.6 66 18.9 90 90 E 5 7 29.98 1015 5 8 0.00 0.00
1:17 am 01:17 Mostly Cloudy with Mist and Fog 69 20.6 66 18.9 90 90 ESE 5 7 29.94 1014 5 8 0.00 0.00
1:53 am 01:53 Cloudy with Mist and Fog 69 20.6 66 18.9 90 90 E 6 9 29.98 1015 5 8 0.00 0.00
2:53 am 02:53 Cloudy with Mist and Fog 69 20.6 67 19.4 93 93 E 3 6 29.97 1015 4 6 0.00 0.00
3:53 am 03:53 Cloudy with Mist and Fog 69 20.6 66 18.9 90 90 ESE 3 6 29.96 1015 4 6 0.00 0.00
4:50 am 04:50 Cloudy with Mist and Fog 70 21 66 19 88 88 NNE 3 6 29.93 1014 3 5 0.00 0.00
4:53 am 04:53 Cloudy with Mist and Fog 69 20.6 67 19.4 93 93 NNE 3 6 29.97 1015 3 5 0.00 0.00
5:19 am 05:19 Mostly Cloudy with Mist and Fog 69 20.6 66 18.9 90 90 ESE 3 6 29.93 1013 3 5 0.00 0.00
5:33 am 05:33 Partly Cloudy with Mist and Fog 68 20 66 18.9 93 93 SE 5 7 29.93 1014 3 5 0.00 0.00
5:53 am 05:53 Clear with Mist and Fog 68 20 66 18.9 93 93 SE 5 7 29.97 1015 3 5 0.00 0.00
6:08 am 06:08 Clear with Mist and Fog 68 20 65 18.3 90 90 Calm 29.95 1014 2 3 0.00 0.00
6:15 am 06:15 Clear with Mist and Fog 66 18.9 63 17.2 90 90 N 3 6 29.96 1014 1 2 0.00 0.00
6:31 am 06:31 Partly Cloudy with Mist and Fog 66 18.9 64 17.8 93 93 N 3 6 29.96 1014 1 1 0.00 0.00
6:37 am 06:37 Mostly Cloudy with Mist and Fog 67 19.4 65 18.3 93 93 Calm 29.96 1015 1 2 0.00 0.00
6:53 am 06:53 Cloudy with Mist and Fog 68 20 66 18.9 93 93 Calm 29.99 1016 1 2 0.00 0.00
7:53 am 07:53 Cloudy with Mist and Fog 69 20.6 66 18.9 90 90 ESE 6 9 29.99 1016 2 3 0.00 0.00
8:04 am 08:04 Cloudy with Mist and Fog 69 20.6 66 18.9 90 90 ESE 5 7 29.97 1015 2 3 0.00 0.00
8:42 am 08:42 Cloudy with Mist and Fog 70 21.1 67 19.4 90 90 SSE 5 7 29.97 1015 3 4 0.00 0.00
8:53 am 08:53 Cloudy with Mist and Fog 70 21.1 67 19.4 90 90 SSE 5 7 30.01 1016 3 5 0.00 0.00
9:06 am 09:06 Cloudy with Mist and Fog 71 21.7 67 19.4 87 87 SE 5 7 29.97 1015 3 5 0.00 0.00
9:53 am 09:53 Cloudy with Haze 72 22.2 67 19.4 84 84 SSE 3 6 30.02 1017 4 6 0.00 0.00
10:36 am 10:36 Mostly Cloudy 75 23.9 68 20 79 79 ESE 8 13 29.95 1014 7 11 0.00 0.00
10:53 am 10:53 Mostly Cloudy 75 23.9 68 20 79 79 SSE 7 11 30.01 1016 9 14 0.00 0.00
11:14 am 11:14 Partly Cloudy 76 24.4 68 20 77 77 SE 8 13 29.95 1014 9 14 0.00 0.00
11:40 am 11:40 Mostly Cloudy 76 24.4 67 19.4 74 74 SE 8 13 29.94 1014 10 16 0.00 0.00
11:53 am 11:53 Mostly Cloudy 77 25 67 19.4 71 71 SE 8 13 30.00 1016 10 16 0.00 0.00
12:19 pm 12:19 Cloudy 78 25.6 65 18.3 64 64 SE 8 13 29.92 1013 10 16 0.00 0.00
12:53 pm 12:53 Cloudy 79 26.1 67 19.4 67 67 ESE 8 13 29.99 1016 10 16 0.00 0.00
1:53 pm 13:53 Partly Cloudy 80 26.7 66 18.9 62 62 E 6 9 29.99 1016 10 16 0.00 0.00
2:53 pm 14:53 Mostly Cloudy 81 27.2 67 19.4 62 62 ESE 6 9 29.98 1015 10 16 0.00 0.00
3:53 pm 15:53 Mostly Cloudy 82 27.8 68 20 63 63 VRB 5 7 29.98 1015 10 16 0.00 0.00
4:53 pm 16:53 Mostly Sunny 81 27.2 67 19.4 62 62 SE 7 11 29.97 1015 10 16 0.00 0.00
5:53 pm 17:53 Sunny 83 28.3 66 18.9 57 57 SSE 7 11 29.96 1015 10 16 0.00 0.00
6:53 pm 18:53 Sunny 81 27.2 68 20 65 65 ESE 7 11 29.95 1014 10 16 0.00 0.00
7:53 pm 19:53 Sunny 79 26.1 69 20.6 72 72 SE 6 9 29.95 1014 10 16 0.00 0.00
8:53 pm 20:53 Sunny 76 24.4 69 20.6 79 79 SE 7 11 29.96 1014 10 16 0.00 0.00
9:53 pm 21:53 Clear 74 23.3 68 20 82 82 SE 7 11 29.98 1015 10 16 0.00 0.00
10:53 pm 22:53 Clear 73 22.8 68 20 84 84 SE 7 11 29.99 1016 10 16 0.00 0.00
11:53 pm 23:53 Clear 72 22.2 68 20 87 87 SE 8 13 30.00 1016 10 16 0.00 0.00

Powered by AerisWeather